Portada
METAR-TAF:

METAR-TAF

Aeroports :

Bradshaw Army Air Field

Bradshaw, Hawaii, Estats Units d'Amèrica

latitud: 19-47N, longitud: 155-33W, altitud: 1887 m

Observació

L'informe es va fer fa 58 minuts, a les 15:58 UTC
Vent 7 kt del Est
Temperatura 10°C
Humitat 87%
Pressió 1027 hPa
Visibilitat: 16.1 km
Cel clar

METAR: PHSF 051558Z AUTO 10007KT 10SM CLR 10/08 A3034 RMK AO2 SLP161

Hora: 06:56 (16:56 UTC)


TAF: manca

Observacions i pronòstics meteorològics de més de 4000 aeroports (METAR i TAF).

Les estacions disponibles són els punts grocs i vermells al mapa.

Posi el ratolí al punt desitjat per veure el nom de l'estació.

Feu clic per veure les observacions i els pronòstics meteorològics.

Per canviar el mapa: feu clic els botons verds amb una creu de color negre per apropar; al botó verd amb un guió per allunyar la imatge; o en les fletxes verdes per a mapes adjacents.


METAR-TAF: